This is the latest recevied weather packets stored in our database for station/object N7CW. If no packets are shown the sender has not sent any weather packets the latest 10 day(s).
| Time | Temp. | Humidity | Pressure | Rain* | Wind** | Luminosity | Snow |
|---|---|---|---|---|---|---|---|
| 1777667556 | 20.56° C | 19% | 1015.9 hPa | 0 mm | - | 982 W/m² | - |
| 1777667253 | 20° C | 20% | 1015.9 hPa | 0 mm | - | 762 W/m² | - |
| 1777666950 | 21.11° C | 19% | 1015.8 hPa | 0 mm | - | 300 W/m² | - |
| 1777666647 | 20.56° C | 19% | 1016 hPa | 0 mm | - | 991 W/m² | - |
| 1777666344 | 21.67° C | 20% | 1015.8 hPa | 0 mm | - | 934 W/m² | - |
| 1777666040 | 20.56° C | 19% | 1015.8 hPa | 0 mm | - | 705 W/m² | - |
| 1777665738 | 20° C | 19% | 1016 hPa | 0 mm | - | 985 W/m² | - |
| 1777665435 | 19.44° C | 21% | 1016.1 hPa | 0 mm | - | 450 W/m² | - |
| 1777665131 | 18.89° C | 21% | 1015.9 hPa | 0 mm | - | 502 W/m² | - |
| 1777664827 | 19.44° C | 20% | 1016.1 hPa | 0 mm | - | 239 W/m² | - |
| 1777664522 | 18.33° C | 21% | 1016.1 hPa | 0 mm | - | 245 W/m² | - |
| 1777664220 | 19.44° C | 21% | 1016.2 hPa | 0 mm | - | 231 W/m² | - |
| 1777663918 | 20° C | 22% | 1016.5 hPa | 0 mm | - | 205 W/m² | - |
| 1777663615 | 20° C | 21% | 1016.1 hPa | 0 mm | - | 220 W/m² | - |
| 1777663312 | 20.56° C | 21% | 1016.1 hPa | 0 mm | - | 973 W/m² | - |
| 1777663010 | 21.67° C | 21% | 1016.5 hPa | 0 mm | - | 959 W/m² | - |
| 1777662707 | 19.44° C | 22% | 1016.5 hPa | 0 mm | - | 948 W/m² | - |
| 1777662403 | 18.89° C | 22% | 1016.5 hPa | 0 mm | - | 969 W/m² | - |
| 1777662098 | 18.89° C | 22% | 1016.4 hPa | 0 mm | - | 305 W/m² | - |
| 1777661794 | 18.89° C | 23% | 1016.4 hPa | 0 mm | - | 251 W/m² | - |
| 1777661490 | 18.89° C | 23% | 1016.5 hPa | 0 mm | - | 257 W/m² | - |
| 1777661187 | 18.89° C | 23% | 1016.6 hPa | 0 mm | - | 306 W/m² | - |
| 1777660881 | 19.44° C | 23% | 1017 hPa | 0 mm | - | 292 W/m² | - |
| 1777660578 | 18.89° C | 22% | 1016.6 hPa | 0 mm | - | 352 W/m² | - |
| 1777660275 | 20.56° C | 22% | 1016.7 hPa | 0 mm | - | 242 W/m² | - |
* Rain latest hour (hover to see other rain measurements)
** Current wind speed in m/s (hover to see current wind gust speed)